Regional Weather Roundup
Issued by NWS Jackson, KY

Home | Current Version | Previous Version | Text Only | Print | Product List | Glossary On
Versions: 1 2 3 4 5 6 7 8 9 10 11 12 13 14 15 16 17 18 19 20 21 22 23 24 25 26 27 28 29 30 31 32 33 34 35 36 37 38 39 40 41 42 43 44 45 46 47 48 49 50
000
ASUS43 KJKL 061610
RWRJKL

EAST KENTUCKY HOURLY WEATHER ROUNDUP
NATIONAL WEATHER SERVICE JACKSON KY
1200 PM EDT FRI MAY 06 2016

NOTE: "FAIR" INDICATES FEW OR NO CLOUDS BELOW 12,000 FEET WITH
NO SIGNIFICANT WEATHER AND/OR OBSTRUCTIONS TO VISIBILITY.

* THESE REPORTS ARE NOT UNDER NWS QUALITY CONTROL AND MAY NOT
  REPORT WEATHER SUCH AS PRECIPITATION AND FOG.

KYZ079-080-083-085-087-088-110-112-115-119-120-061700
...EASTERN KENTUCKY...

CITY           SKY/WX    TMP DP  RH WIND       PRES   REMARKS
JACKSON        MOSUNNY   61  41  47 NW8       29.95S
LONDON         PTSUNNY   61  40  45 N10       29.97S
SOMERSET*      MOSUNNY   61  43  51 NE12G18   30.00F
MONTICELLO*    SUNNY     63  46  54 N18G28    30.02S
WILLIAMSBURG*  MOSUNNY   59  37  44 N8        29.98S
MIDDLESBORO*   PTSUNNY   60  44  57 NW10G17   29.97S
HARLAN APT*    CLOUDY    55  41  58 NW6       29.96R
HAZARD APT*    PTSUNNY   59  45  58 N3        29.95S
BLACK MTN*       N/A     43  43 100 NE2         N/A
PIKE CO APT*   CLOUDY    58  45  62 N7        29.93R
BIG SANDY APT* CLOUDY    61  46  57 NE7       29.93S
MOREHEAD APT*  SUNNY     64  43  45 N8G16     29.98S
$$

KYZ035-036-041-042-044-050-067-078-099-061700
...CENTRAL KENTUCKY...

CITY           SKY/WX    TMP DP  RH WIND       PRES   REMARKS
MT STERLING*   SUNNY     63  45  51 N8G16     29.99S
FLEMING/MASON* SUNNY     63  43  47 N9G16     29.97F
DANVILLE*      SUNNY     63  46  55 NW9       30.01S
RICHMOND*      SUNNY     63  43  48 N9        29.98S
LEXINGTON      SUNNY     65  44  46 N13G20    29.99S
LOUISVILLE     MOSUNNY   67  39  35 N16       30.02S
LEBANON*         N/A     63  50  63 NW8       30.02S
BOWLING GREEN  SUNNY     67  44  43 N8G17     30.05R
$$

KYZ091>093-OHZ055-061-077-WVZ005-015-034-035-042-061700
...SOUTHERN OHIO/WEST VIRGINIA...

CITY           SKY/WX    TMP DP  RH WIND       PRES   REMARKS
COVINGTON      MOSUNNY   64  44  48 NW7       29.99S
COLUMBUS       MOSUNNY   64  41  42 NW14G21   29.94R
DAYTON         MOSUNNY   64  40  41 N13       29.99S
WILMINGTON     SUNNY     63  44  50 N10       29.97R
HUNTINGTON     PTSUNNY   61  45  55 NW9       29.91F
CHARLESTON     PTSUNNY   62  44  51 NW8G21    29.87F
PINEVILLE*     CLOUDY    57  42  56 MISG      29.93S
BECKLEY        CLOUDY    51  42  71 N14G24    29.86S
$$

VAZ002-007-008-TNZ017-027-036-066-071-061700
...SOUTHWEST VIRGINIA/EAST TENNESSEE...

CITY           SKY/WX    TMP DP  RH WIND       PRES   REMARKS
WISE*          CLOUDY    52  39  62 N7        29.95R
BRISTOL        CLOUDY    56  45  66 N8        29.93R
SEVIERVILLE*   SUNNY     61  45  55 NW8       29.96R
KNOXVILLE      MOSUNNY   63  42  46 N14G22    29.96S
OAK RIDGE      PTSUNNY   64  38  38 VRB7      29.98S
CROSSVILLE     MOSUNNY   60  42  51 N13G20    30.01S
NASHVILLE      MOSUNNY   68  41  37 N12G18    30.05S
$$

...KEY TO REMARKS...
VSB - VISIBILITY IN MILES
WCI - WIND CHILL INDEX
HX  - HEAT INDEX

$$



USA.gov is the U.S. government's official web portal to all federal, state and local government web resources and services.